| time (UTC) | temp F | wind direction | speed MPH | gust MPH | rain 1hr in | rain 24hr in | rain mn in | humidity % | barometer mb |
| 20260831105140 | 72 | 148 | 0.0 | 0.0 | 0.00 | 0.00 | 0.00 | 94 | 1018.2 |
| 20260831104640 | 72 | 148 | 0.0 | 2.0 | 0.00 | 0.00 | 0.00 | 94 | 1018.3 |
| 20260831104140 | 72 | 148 | 1.0 | 3.0 | 0.00 | 0.00 | 0.00 | 94 | 1018.2 |
| 20260831103640 | 72 | 151 | 0.0 | 1.0 | 0.00 | 0.00 | 0.00 | 93 | 1018.2 |
| 20260831103141 | 72 | 138 | 0.0 | 0.0 | 0.00 | 0.00 | 0.00 | 93 | 1018.1 |
| 20260831102640 | 73 | 138 | 0.0 | 1.0 | 0.00 | 0.00 | 0.00 | 93 | 1018.1 |
| 20260831102140 | 73 | 138 | 0.0 | 2.0 | 0.00 | 0.00 | 0.00 | 94 | 1018.1 |
| 20260831101640 | 73 | 174 | 0.0 | 0.0 | 0.00 | 0.00 | 0.00 | 94 | 1018.2 |
| 20260831101140 | 73 | 174 | 0.0 | 2.0 | 0.00 | 0.00 | 0.00 | 94 | 1018.0 |
| 20260831100640 | 73 | 167 | 0.0 | 2.0 | 0.00 | 0.00 | 0.00 | 94 | 1018.0 |
| 20260831100140 | 73 | 167 | 0.0 | 2.0 | 0.00 | 0.00 | 0.00 | 93 | 1018.0 |
| 20260831095640 | 73 | 167 | 0.0 | 0.0 | 0.00 | 0.00 | 0.00 | 93 | 1017.9 |
| 20260831095140 | 73 | 167 | 0.0 | 1.0 | 0.00 | 0.00 | 0.00 | 94 | 1017.9 |
| 20260831094640 | 73 | 167 | 0.0 | 1.0 | 0.00 | 0.00 | 0.00 | 93 | 1017.8 |
| 20260831094140 | 73 | 167 | 0.0 | 0.0 | 0.00 | 0.00 | 0.00 | 93 | 1017.8 |
| 20260831093835 | 73 | 167 | 0.0 | 0.0 | 0.00 | 0.00 | 0.00 | 93 | 1017.8 |
| 20260831093640 | 73 | 167 | 0.0 | 0.0 | 0.00 | 0.00 | 0.00 | 93 | 1017.8 |
| 20260831093140 | 73 | 167 | 0.0 | 0.0 | 0.00 | 0.00 | 0.00 | 92 | 1017.6 |
| 20260831092640 | 74 | 167 | 0.0 | 0.0 | 0.00 | 0.00 | 0.00 | 92 | 1017.6 |
| 20260831092140 | 74 | 167 | 0.0 | 1.0 | 0.00 | 0.00 | 0.00 | 91 | 1017.6 |
| 20260831091640 | 74 | 167 | 1.0 | 3.0 | 0.00 | 0.00 | 0.00 | 92 | 1017.4 |
| 20260831091140 | 74 | 188 | 1.0 | 3.0 | 0.00 | 0.00 | 0.00 | 92 | 1017.3 |
| 20260831090640 | 74 | 179 | 0.0 | 3.0 | 0.00 | 0.00 | 0.00 | 92 | 1017.4 |
| 20260831090140 | 74 | 153 | 0.0 | 2.0 | 0.00 | 0.00 | 0.00 | 93 | 1017.4 |
| 20260831085640 | 74 | 154 | 0.0 | 0.0 | 0.00 | 0.00 | 0.00 | 93 | 1017.3 |
| 20260831085140 | 74 | 155 | 0.0 | 0.0 | 0.00 | 0.00 | 0.00 | 93 | 1017.3 |
| 20260831084640 | 73 | 158 | 0.0 | 0.0 | 0.00 | 0.00 | 0.00 | 93 | 1017.3 |
| 20260831084140 | 73 | 144 | 0.0 | 0.0 | 0.00 | 0.00 | 0.00 | 94 | 1017.3 |
| 20260831083641 | 73 | 142 | 0.0 | 0.0 | 0.00 | 0.00 | 0.00 | 94 | 1017.3 |
| 20260831083140 | 73 | 124 | 0.0 | 0.0 | 0.00 | 0.00 | 0.00 | 94 | 1017.3 |
| 20260831082640 | 73 | 122 | 0.0 | 0.0 | 0.00 | 0.00 | 0.00 | 93 | 1017.3 |
| 20260831082141 | 73 | 122 | 0.0 | 0.0 | 0.00 | 0.00 | 0.00 | 93 | 1017.2 |
| 20260831081641 | 73 | 122 | 0.0 | 0.0 | 0.00 | 0.00 | 0.00 | 93 | 1017.2 |
| 20260831081141 | 73 | 121 | 0.0 | 0.0 | 0.00 | 0.00 | 0.00 | 93 | 1017.2 |
| 20260831080641 | 73 | 125 | 0.0 | 0.0 | 0.00 | 0.00 | 0.00 | 92 | 1017.2 |
| 20260831080141 | 73 | 125 | 0.0 | 0.0 | 0.00 | 0.00 | 0.00 | 92 | 1017.2 |
| 20260831075640 | 73 | 126 | 0.0 | 0.0 | 0.00 | 0.00 | 0.00 | 91 | 1017.1 |
| 20260831075141 | 74 | 126 | 0.0 | 0.0 | 0.00 | 0.00 | 0.00 | 91 | 1017.3 |
| 20260831074641 | 74 | 127 | 0.0 | 0.0 | 0.00 | 0.00 | 0.00 | 90 | 1017.3 |
| 20260831074141 | 74 | 124 | 1.0 | 0.0 | 0.00 | 0.00 | 0.00 | 91 | 1017.4 |
| 20260831073641 | 74 | 125 | 1.0 | 3.0 | 0.00 | 0.00 | 0.00 | 91 | 1017.3 |
| 20260831073141 | 74 | 112 | 1.0 | 4.0 | 0.00 | 0.00 | 0.00 | 92 | 1017.4 |
| 20260831072641 | 74 | 198 | 0.0 | 1.0 | 0.00 | 0.00 | 0.00 | 92 | 1017.4 |
| 20260831072141 | 74 | 198 | 0.0 | 1.0 | 0.00 | 0.00 | 0.00 | 92 | 1017.4 |
| 20260831071641 | 74 | 198 | 0.0 | 0.0 | 0.00 | 0.00 | 0.00 | 91 | 1017.4 |
| 20260831071141 | 74 | 198 | 0.0 | 0.0 | 0.00 | 0.00 | 0.00 | 91 | 1017.5 |
| 20260831070641 | 74 | 198 | 0.0 | 0.0 | 0.00 | 0.00 | 0.00 | 91 | 1017.5 |
| 20260831070141 | 74 | 198 | 0.0 | 0.0 | 0.00 | 0.00 | 0.00 | 91 | 1017.6 |
| 20260831065641 | 74 | 198 | 0.0 | 0.0 | 0.00 | 0.00 | 0.00 | 91 | 1017.6 |
| 20260831065141 | 74 | 198 | 0.0 | 1.0 | 0.00 | 0.00 | 0.00 | 91 | 1017.7 |
| 20260831064641 | 74 | 198 | 0.0 | 2.0 | 0.00 | 0.00 | 0.00 | 91 | 1017.8 |
| 20260831064141 | 75 | 200 | 0.0 | 1.0 | 0.00 | 0.00 | 0.00 | 91 | 1017.7 |
| 20260831063641 | 75 | 200 | 0.0 | 1.0 | 0.00 | 0.00 | 0.00 | 90 | 1017.8 |
| 20260831063141 | 75 | 200 | 0.0 | 0.0 | 0.00 | 0.00 | 0.00 | 90 | 1017.7 |
| 20260831062641 | 75 | 200 | 0.0 | 0.0 | 0.00 | 0.00 | 0.00 | 89 | 1017.8 |
| 20260831062141 | 75 | 200 | 0.0 | 0.0 | 0.00 | 0.00 | 0.00 | 89 | 1017.8 |
| 20260831061641 | 76 | 200 | 0.0 | 1.0 | 0.00 | 0.00 | 0.00 | 88 | 1017.7 |
| 20260831061141 | 76 | 200 | 0.0 | 1.0 | 0.00 | 0.00 | 0.00 | 87 | 1017.7 |
| 20260831060641 | 76 | 200 | 0.0 | 1.0 | 0.00 | 0.00 | 0.00 | 87 | 1017.7 |
| 20260831060141 | 77 | 200 | 1.0 | 2.0 | 0.00 | 0.00 | 0.00 | 87 | 1017.7 |
| 20260831055641 | 77 | 200 | 1.0 | 2.0 | 0.00 | 0.00 | 0.00 | 87 | 1017.7 |
| 20260831055141 | 77 | 197 | 1.0 | 3.0 | 0.00 | 0.00 | 0.00 | 87 | 1017.7 |
| 20260831054641 | 77 | 198 | 1.0 | 2.0 | 0.00 | 0.00 | 0.00 | 87 | 1017.6 |
| 20260831054141 | 77 | 197 | 0.0 | 3.0 | 0.00 | 0.00 | 0.00 | 87 | 1017.8 |
| 20260831053641 | 77 | 200 | 0.0 | 0.0 | 0.00 | 0.00 | 0.00 | 87 | 1017.9 |
| 20260831053141 | 77 | 200 | 0.0 | 0.0 | 0.00 | 0.00 | 0.00 | 86 | 1017.8 |
| 20260831052641 | 77 | 200 | 0.0 | 0.0 | 0.00 | 0.00 | 0.00 | 86 | 1017.9 |
| 20260831052141 | 77 | 200 | 0.0 | 0.0 | 0.00 | 0.00 | 0.00 | 86 | 1017.8 |
| 20260831051641 | 77 | 200 | 0.0 | 0.0 | 0.00 | 0.00 | 0.00 | 86 | 1017.8 |
| 20260831051141 | 78 | 182 | 0.0 | 0.0 | 0.00 | 0.00 | 0.00 | 85 | 1017.8 |
| 20260831050641 | 78 | 190 | 0.0 | 0.0 | 0.00 | 0.00 | 0.00 | 85 | 1017.8 |
| 20260831050141 | 78 | 190 | 0.0 | 0.0 | 0.00 | 0.00 | 0.00 | 85 | 1017.9 |
| 20260831045641 | 78 | 190 | 0.0 | 0.0 | 0.00 | 0.00 | 0.00 | 85 | 1017.9 |
| 20260831045141 | 78 | 191 | 0.0 | 0.0 | 0.00 | 0.00 | 0.00 | 85 | 1017.8 |
| 20260831044641 | 78 | 191 | 1.0 | 3.0 | 0.00 | 0.00 | 0.00 | 84 | 1017.8 |
| 20260831044141 | 78 | 214 | 1.0 | 3.0 | 0.00 | 0.00 | 0.00 | 84 | 1017.9 |
| 20260831043641 | 78 | 210 | 1.0 | 3.0 | 0.00 | 0.00 | 0.00 | 84 | 1017.9 |
| 20260831043141 | 78 | 212 | 1.0 | 3.0 | 0.00 | 0.00 | 0.00 | 84 | 1017.9 |
| 20260831042641 | 78 | 185 | 1.0 | 2.0 | 0.00 | 0.00 | 0.00 | 84 | 1017.9 |
| 20260831042141 | 79 | 184 | 1.0 | 2.0 | 0.00 | 0.00 | 0.00 | 84 | 1018.0 |
| 20260831041641 | 79 | 183 | 0.0 | 3.0 | 0.00 | 0.00 | 0.00 | 84 | 1018.1 |
| 20260831041141 | 79 | 191 | 0.0 | 2.0 | 0.00 | 0.00 | 0.00 | 84 | 1018.1 |
| 20260831040641 | 79 | 191 | 0.0 | 1.0 | 0.00 | 0.00 | 0.00 | 83 | 1018.0 |
| 20260831040141 | 79 | 192 | 1.0 | 2.0 | 0.00 | 0.00 | 0.00 | 82 | 1018.1 |
| 20260831035641 | 80 | 153 | 1.0 | 3.0 | 0.00 | 0.00 | 0.00 | 82 | 1017.9 |
| 20260831035141 | 80 | 146 | 1.0 | 2.0 | 0.00 | 0.00 | 0.00 | 82 | 1017.9 |
| 20260831034641 | 80 | 160 | 1.0 | 2.0 | 0.00 | 0.00 | 0.00 | 82 | 1018.0 |
| 20260831034141 | 80 | 162 | 1.0 | 3.0 | 0.00 | 0.00 | 0.00 | 81 | 1017.9 |
| 20260831033641 | 80 | 168 | 1.0 | 3.0 | 0.00 | 0.00 | 0.00 | 81 | 1017.9 |
| 20260831033141 | 80 | 170 | 1.0 | 3.0 | 0.00 | 0.00 | 0.00 | 81 | 1017.9 |
| 20260831032641 | 80 | 167 | 0.0 | 3.0 | 0.00 | 0.00 | 0.00 | 81 | 1017.8 |
| 20260831032141 | 80 | 162 | 1.0 | 2.0 | 0.00 | 0.00 | 0.00 | 80 | 1017.7 |
| 20260831031641 | 80 | 166 | 1.0 | 3.0 | 0.00 | 0.00 | 0.00 | 80 | 1017.7 |
| 20260831031141 | 81 | 155 | 0.0 | 2.0 | 0.00 | 0.00 | 0.00 | 80 | 1017.6 |
| 20260831030641 | 81 | 145 | 1.0 | 2.0 | 0.00 | 0.00 | 0.00 | 79 | 1017.7 |
| 20260831030141 | 81 | 135 | 1.0 | 3.0 | 0.00 | 0.00 | 0.00 | 79 | 1017.6 |
| 20260831025641 | 81 | 195 | 1.0 | 4.0 | 0.00 | 0.00 | 0.00 | 79 | 1017.6 |
| 20260831025141 | 81 | 178 | 1.0 | 4.0 | 0.00 | 0.00 | 0.00 | 79 | 1017.4 |
| 20260831024641 | 81 | 191 | 0.0 | 2.0 | 0.00 | 0.00 | 0.00 | 78 | 1017.5 |
| 20260831024141 | 82 | 191 | 0.0 | 1.0 | 0.00 | 0.00 | 0.00 | 78 | 1017.6 |
| 20260831023641 | 82 | 189 | 0.0 | 0.0 | 0.00 | 0.00 | 0.00 | 77 | 1017.5 |
| 20260831023141 | 82 | 189 | 0.0 | 0.0 | 0.00 | 0.00 | 0.00 | 77 | 1017.4 |
| 20260831022641 | 83 | 189 | 0.0 | 1.0 | 0.00 | 0.00 | 0.00 | 76 | 1017.3 |
| 20260831022141 | 83 | 189 | 1.0 | 2.0 | 0.00 | 0.00 | 0.00 | 76 | 1017.3 |
| 20260831021641 | 83 | 190 | 1.0 | 2.0 | 0.00 | 0.00 | 0.00 | 75 | 1017.3 |
| 20260831021141 | 83 | 183 | 0.0 | 3.0 | 0.00 | 0.00 | 0.00 | 75 | 1017.2 |
| 20260831020641 | 84 | 166 | 0.0 | 1.0 | 0.00 | 0.00 | 0.00 | 74 | 1017.1 |
| 20260831020141 | 84 | 166 | 0.0 | 2.0 | 0.00 | 0.00 | 0.00 | 73 | 1017.0 |
| 20260831015641 | 84 | 166 | 1.0 | 2.0 | 0.00 | 0.00 | 0.00 | 73 | 1016.9 |
| 20260831015141 | 84 | 164 | 1.0 | 3.0 | 0.00 | 0.00 | 0.00 | 73 | 1016.9 |
| 20260831014641 | 84 | 165 | 1.0 | 3.0 | 0.00 | 0.00 | 0.00 | 73 | 1016.9 |
| 20260831014141 | 84 | 172 | 1.0 | 2.0 | 0.00 | 0.00 | 0.00 | 73 | 1016.9 |
| 20260831013641 | 84 | 158 | 1.0 | 3.0 | 0.00 | 0.00 | 0.00 | 73 | 1016.9 |
| 20260831013141 | 85 | 165 | 1.0 | 2.0 | 0.00 | 0.00 | 0.00 | 72 | 1016.8 |
| 20260831012641 | 85 | 170 | 1.0 | 1.0 | 0.00 | 0.00 | 0.00 | 72 | 1016.8 |
| 20260831012141 | 85 | 167 | 1.0 | 3.0 | 0.00 | 0.00 | 0.00 | 72 | 1016.8 |
| 20260831011641 | 85 | 197 | 0.0 | 2.0 | 0.00 | 0.00 | 0.00 | 72 | 1016.7 |
| 20260831011141 | 85 | 203 | 0.0 | 1.0 | 0.00 | 0.00 | 0.00 | 71 | 1016.8 |
| 20260831010641 | 86 | 203 | 1.0 | 2.0 | 0.00 | 0.00 | 0.00 | 71 | 1016.8 |
| 20260831010141 | 86 | 205 | 1.0 | 2.0 | 0.00 | 0.00 | 0.00 | 70 | 1016.8 |
| 20260831005641 | 86 | 189 | 1.0 | 4.0 | 0.00 | 0.00 | 0.00 | 70 | 1016.8 |
| 20260831005141 | 86 | 181 | 1.0 | 2.0 | 0.00 | 0.00 | 0.00 | 70 | 1016.7 |
| 20260831004641 | 86 | 207 | 2.0 | 2.0 | 0.00 | 0.00 | 0.00 | 69 | 1016.7 |
| 20260831004141 | 87 | 174 | 2.0 | 3.0 | 0.00 | 0.00 | 0.00 | 69 | 1016.6 |
| 20260831003641 | 87 | 208 | 2.0 | 5.0 | 0.00 | 0.00 | 0.00 | 68 | 1016.7 |
| 20260831003141 | 87 | 207 | 2.0 | 4.0 | 0.00 | 0.00 | 0.00 | 68 | 1016.6 |
| 20260831002641 | 88 | 197 | 3.0 | 5.0 | 0.00 | 0.00 | 0.00 | 67 | 1016.5 |
| 20260831002141 | 88 | 219 | 3.0 | 6.0 | 0.00 | 0.00 | 0.00 | 67 | 1016.5 |
| 20260831001641 | 88 | 212 | 3.0 | 6.0 | 0.00 | 0.00 | 0.00 | 66 | 1016.6 |
| 20260831001141 | 88 | 176 | 3.0 | 7.0 | 0.00 | 0.00 | 0.00 | 66 | 1016.6 |
| 20260831000641 | 89 | 179 | 2.0 | 7.0 | 0.00 | 0.00 | 0.00 | 65 | 1016.8 |
| 20260831000141 | 89 | 215 | 3.0 | 5.0 | 0.00 | 0.00 | 0.00 | 65 | 1016.8 |
| 20260830235641 | 89 | 142 | 3.0 | 8.0 | 0.00 | 0.00 | 0.00 | 65 | 1016.7 |
| 20260830235141 | 90 | 217 | 3.0 | 5.0 | 0.00 | 0.00 | 0.00 | 64 | 1016.7 |
| 20260830234641 | 90 | 146 | 4.0 | 6.0 | 0.00 | 0.00 | 0.00 | 63 | 1016.8 |
| 20260830234141 | 90 | 176 | 4.0 | 8.0 | 0.00 | 0.00 | 0.00 | 63 | 1016.8 |
| 20260830233641 | 90 | 159 | 4.0 | 9.0 | 0.00 | 0.00 | 0.00 | 62 | 1016.8 |
| 20260830233141 | 91 | 219 | 4.0 | 8.0 | 0.00 | 0.00 | 0.00 | 63 | 1016.7 |
| 20260830232641 | 91 | 203 | 3.0 | 9.0 | 0.00 | 0.00 | 0.00 | 62 | 1016.7 |
| 20260830232141 | 91 | 198 | 3.0 | 6.0 | 0.00 | 0.00 | 0.00 | 62 | 1016.6 |
| 20260830231641 | 91 | 214 | 4.0 | 7.0 | 0.00 | 0.00 | 0.00 | 62 | 1016.6 |
| 20260830231141 | 91 | 207 | 5.0 | 7.0 | 0.00 | 0.00 | 0.00 | 61 | 1016.5 |
| 20260830230641 | 91 | 212 | 4.0 | 6.0 | 0.00 | 0.00 | 0.00 | 61 | 1016.6 |
| 20260830230141 | 92 | 184 | 4.0 | 7.0 | 0.00 | 0.00 | 0.00 | 61 | 1016.5 |
| 20260830225641 | 92 | 122 | 5.0 | 10.0 | 0.00 | 0.00 | 0.00 | 61 | 1016.6 |
| 20260830225141 | 92 | 235 | 4.0 | 11.0 | 0.00 | 0.00 | 0.00 | 60 | 1016.5 |
| 20260830224641 | 92 | 232 | 4.0 | 8.0 | 0.00 | 0.00 | 0.00 | 59 | 1016.5 |
| 20260830224141 | 93 | 88 | 5.0 | 7.0 | 0.00 | 0.00 | 0.00 | 58 | 1016.5 |
| 20260830223641 | 93 | 238 | 5.0 | 11.0 | 0.00 | 0.00 | 0.00 | 57 | 1016.5 |
| 20260830223141 | 93 | 214 | 4.0 | 7.0 | 0.00 | 0.00 | 0.00 | 58 | 1016.5 |
| 20260830222641 | 93 | 186 | 5.0 | 11.0 | 0.00 | 0.00 | 0.00 | 58 | 1016.5 |
| 20260830222141 | 93 | 182 | 6.0 | 9.0 | 0.00 | 0.00 | 0.00 | 58 | 1016.5 |
| 20260830221641 | 94 | 214 | 5.0 | 10.0 | 0.00 | 0.00 | 0.00 | 59 | 1016.5 |
| 20260830221141 | 94 | 172 | 4.0 | 9.0 | 0.00 | 0.00 | 0.00 | 57 | 1016.5 |
| 20260830220641 | 95 | 146 | 4.0 | 7.0 | 0.00 | 0.00 | 0.00 | 58 | 1016.6 |
| 20260830220141 | 95 | 194 | 4.0 | 8.0 | 0.00 | 0.00 | 0.00 | 57 | 1016.6 |
| 20260830215641 | 95 | 105 | 4.0 | 7.0 | 0.00 | 0.00 | 0.00 | 56 | 1016.6 |
| 20260830215141 | 95 | 177 | 4.0 | 10.0 | 0.00 | 0.00 | 0.00 | 55 | 1016.6 |
| 20260830214641 | 95 | 219 | 5.0 | 11.0 | 0.00 | 0.00 | 0.00 | 56 | 1016.7 |
| 20260830214141 | 95 | 205 | 5.0 | 10.0 | 0.00 | 0.00 | 0.00 | 56 | 1016.5 |
| 20260830213641 | 95 | 198 | 4.0 | 9.0 | 0.00 | 0.00 | 0.00 | 56 | 1016.6 |
| 20260830213141 | 95 | 247 | 4.0 | 7.0 | 0.00 | 0.00 | 0.00 | 55 | 1016.6 |
| 20260830212641 | 94 | 231 | 6.0 | 9.0 | 0.00 | 0.00 | 0.00 | 57 | 1016.7 |
| 20260830212141 | 94 | 205 | 6.0 | 11.0 | 0.00 | 0.00 | 0.00 | 57 | 1016.7 |
| 20260830211641 | 94 | 193 | 5.0 | 12.0 | 0.00 | 0.00 | 0.00 | 57 | 1016.8 |
| 20260830211141 | 94 | 235 | 5.0 | 11.0 | 0.00 | 0.00 | 0.00 | 57 | 1016.8 |
| 20260830210641 | 94 | 207 | 6.0 | 11.0 | 0.00 | 0.00 | 0.00 | 57 | 1016.9 |
| 20260830210141 | 95 | 229 | 5.0 | 9.0 | 0.00 | 0.00 | 0.00 | 57 | 1016.9 |
| 20260830205641 | 94 | 192 | 5.0 | 12.0 | 0.00 | 0.00 | 0.00 | 58 | 1016.9 |
| 20260830205141 | 94 | 207 | 6.0 | 12.0 | 0.00 | 0.00 | 0.00 | 58 | 1016.9 |
| 20260830204641 | 94 | 195 | 6.0 | 12.0 | 0.00 | 0.00 | 0.00 | 58 | 1017.0 |
| 20260830204141 | 95 | 210 | 5.0 | 15.0 | 0.00 | 0.00 | 0.00 | 57 | 1017.1 |
| 20260830203641 | 95 | 245 | 5.0 | 8.0 | 0.00 | 0.00 | 0.00 | 57 | 1017.2 |
| 20260830203141 | 94 | 151 | 5.0 | 9.0 | 0.00 | 0.00 | 0.00 | 58 | 1017.2 |
| 20260830202641 | 93 | 192 | 4.0 | 10.0 | 0.00 | 0.00 | 0.00 | 61 | 1017.4 |
| 20260830202141 | 93 | 205 | 5.0 | 11.0 | 0.00 | 0.00 | 0.00 | 59 | 1017.4 |
| 20260830201641 | 93 | 231 | 4.0 | 10.0 | 0.00 | 0.00 | 0.00 | 59 | 1017.4 |
| 20260830201141 | 93 | 199 | 3.0 | 11.0 | 0.00 | 0.00 | 0.00 | 59 | 1017.5 |
| 20260830200641 | 94 | 205 | 3.0 | 4.0 | 0.00 | 0.00 | 0.00 | 58 | 1017.6 |
| 20260830200141 | 94 | 213 | 4.0 | 8.0 | 0.00 | 0.00 | 0.00 | 58 | 1017.7 |
| 20260830195641 | 95 | 200 | 5.0 | 10.0 | 0.00 | 0.00 | 0.00 | 57 | 1017.6 |
| 20260830195141 | 95 | 210 | 5.0 | 10.0 | 0.00 | 0.00 | 0.00 | 58 | 1017.7 |
| 20260830194641 | 95 | 210 | 4.0 | 10.0 | 0.00 | 0.00 | 0.00 | 58 | 1017.6 |
| 20260830194141 | 94 | 158 | 4.0 | 9.0 | 0.00 | 0.00 | 0.00 | 58 | 1017.7 |
| 20260830193641 | 95 | 127 | 4.0 | 9.0 | 0.00 | 0.00 | 0.00 | 57 | 1017.7 |
| 20260830193141 | 94 | 242 | 4.0 | 8.0 | 0.00 | 0.00 | 0.00 | 60 | 1017.8 |
| 20260830192641 | 93 | 172 | 3.0 | 9.0 | 0.00 | 0.00 | 0.00 | 60 | 1017.7 |
| 20260830192141 | 93 | 46 | 3.0 | 7.0 | 0.00 | 0.00 | 0.00 | 61 | 1018.0 |
| 20260830191641 | 93 | 172 | 3.0 | 6.0 | 0.00 | 0.00 | 0.00 | 62 | 1017.9 |
| 20260830191142 | 93 | 134 | 4.0 | 8.0 | 0.00 | 0.00 | 0.00 | 61 | 1018.1 |
| 20260830190641 | 95 | 203 | 4.0 | 8.0 | 0.00 | 0.00 | 0.00 | 58 | 1018.2 |
| 20260830190142 | 95 | 244 | 4.0 | 9.0 | 0.00 | 0.00 | 0.00 | 58 | 1018.0 |
| 20260830185641 | 94 | 124 | 3.0 | 6.0 | 0.00 | 0.00 | 0.00 | 60 | 1018.1 |
| 20260830185142 | 94 | 50 | 4.0 | 6.0 | 0.00 | 0.00 | 0.00 | 61 | 1018.1 |
| 20260830184642 | 94 | 257 | 4.0 | 8.0 | 0.00 | 0.00 | 0.00 | 61 | 1018.3 |
| 20260830184142 | 94 | 135 | 3.0 | 9.0 | 0.00 | 0.00 | 0.00 | 62 | 1018.3 |
| 20260830183642 | 93 | 249 | 3.0 | 7.0 | 0.00 | 0.00 | 0.00 | 62 | 1018.3 |
| 20260830183142 | 94 | 144 | 5.0 | 6.0 | 0.00 | 0.00 | 0.00 | 60 | 1018.3 |
| 20260830182642 | 94 | 216 | 5.0 | 10.0 | 0.00 | 0.00 | 0.00 | 60 | 1018.3 |
| 20260830182142 | 93 | 202 | 4.0 | 6.0 | 0.00 | 0.00 | 0.00 | 61 | 1018.3 |
| 20260830181642 | 91 | 229 | 4.0 | 8.0 | 0.00 | 0.00 | 0.00 | 65 | 1018.5 |
| 20260830181142 | 91 | 91 | 3.0 | 8.0 | 0.00 | 0.00 | 0.00 | 64 | 1018.4 |
| 20260830180642 | 91 | 196 | 4.0 | 5.0 | 0.00 | 0.00 | 0.00 | 65 | 1018.5 |
| 20260830180142 | 92 | 215 | 4.0 | 11.0 | 0.00 | 0.00 | 0.00 | 63 | 1018.6 |
| 20260830175642 | 92 | 205 | 4.0 | 11.0 | 0.00 | 0.00 | 0.00 | 63 | 1018.6 |
| 20260830175142 | 92 | 174 | 4.0 | 8.0 | 0.00 | 0.00 | 0.00 | 62 | 1018.6 |
| 20260830174642 | 93 | 202 | 5.0 | 9.0 | 0.00 | 0.00 | 0.00 | 64 | 1018.7 |
| 20260830174142 | 92 | 180 | 4.0 | 10.0 | 0.00 | 0.00 | 0.00 | 63 | 1018.7 |
| 20260830173642 | 91 | 83 | 3.0 | 10.0 | 0.00 | 0.00 | 0.00 | 66 | 1018.6 |
| 20260830173142 | 91 | 214 | 4.0 | 7.0 | 0.00 | 0.00 | 0.00 | 66 | 1018.8 |
| 20260830172642 | 91 | 207 | 5.0 | 8.0 | 0.00 | 0.00 | 0.00 | 66 | 1018.8 |
| 20260830172142 | 92 | 149 | 4.0 | 8.0 | 0.00 | 0.00 | 0.00 | 66 | 1018.8 |
| 20260830171642 | 91 | 205 | 4.0 | 11.0 | 0.00 | 0.00 | 0.00 | 67 | 1019.0 |
| 20260830171142 | 91 | 240 | 4.0 | 8.0 | 0.00 | 0.00 | 0.00 | 68 | 1019.0 |
| 20260830170642 | 91 | 221 | 4.0 | 7.0 | 0.00 | 0.00 | 0.00 | 69 | 1019.1 |
| 20260830170142 | 90 | 225 | 4.0 | 10.0 | 0.00 | 0.00 | 0.00 | 69 | 1019.2 |
| 20260830165642 | 91 | 255 | 5.0 | 12.0 | 0.00 | 0.00 | 0.00 | 70 | 1019.3 |
| 20260830165142 | 90 | 217 | 5.0 | 10.0 | 0.00 | 0.00 | 0.00 | 69 | 1019.2 |
| 20260830164642 | 90 | 140 | 5.0 | 13.0 | 0.00 | 0.00 | 0.00 | 68 | 1019.4 |
| 20260830164142 | 90 | 181 | 6.0 | 12.0 | 0.00 | 0.00 | 0.00 | 69 | 1019.4 |
| 20260830163642 | 90 | 195 | 6.0 | 13.0 | 0.00 | 0.00 | 0.00 | 70 | 1019.6 |
| 20260830163142 | 90 | 176 | 5.0 | 12.0 | 0.00 | 0.00 | 0.00 | 71 | 1019.6 |
| 20260830162642 | 90 | 248 | 5.0 | 12.0 | 0.00 | 0.00 | 0.00 | 71 | 1019.5 |
| 20260830162142 | 89 | 255 | 4.0 | 8.0 | 0.00 | 0.00 | 0.00 | 73 | 1019.5 |
| 20260830161642 | 89 | 222 | 4.0 | 9.0 | 0.00 | 0.00 | 0.00 | 73 | 1019.5 |
| 20260830161142 | 88 | 240 | 6.0 | 10.0 | 0.00 | 0.00 | 0.00 | 73 | 1019.6 |
| 20260830160642 | 88 | 250 | 6.0 | 11.0 | 0.00 | 0.00 | 0.00 | 73 | 1019.5 |
| 20260830160142 | 88 | 255 | 5.0 | 8.0 | 0.00 | 0.00 | 0.00 | 74 | 1019.5 |
| 20260830155642 | 88 | 196 | 5.0 | 10.0 | 0.00 | 0.00 | 0.00 | 72 | 1019.6 |
| 20260830155142 | 88 | 166 | 4.0 | 9.0 | 0.00 | 0.00 | 0.00 | 73 | 1019.5 |
| 20260830154642 | 88 | 220 | 4.0 | 7.0 | 0.00 | 0.00 | 0.00 | 73 | 1019.5 |
| 20260830154142 | 87 | 161 | 5.0 | 10.0 | 0.00 | 0.00 | 0.00 | 74 | 1019.5 |
| 20260830153642 | 87 | 244 | 4.0 | 9.0 | 0.00 | 0.00 | 0.00 | 74 | 1019.5 |
| 20260830153142 | 87 | 253 | 4.0 | 6.0 | 0.00 | 0.00 | 0.00 | 75 | 1019.5 |
| 20260830152642 | 87 | 250 | 4.0 | 8.0 | 0.00 | 0.00 | 0.00 | 75 | 1019.6 |
| 20260830152142 | 87 | 153 | 4.0 | 7.0 | 0.00 | 0.00 | 0.00 | 75 | 1019.6 |
| 20260830151642 | 86 | 243 | 4.0 | 8.0 | 0.00 | 0.00 | 0.00 | 76 | 1019.7 |
| 20260830151142 | 86 | 260 | 4.0 | 8.0 | 0.00 | 0.00 | 0.00 | 76 | 1019.5 |
| 20260830150642 | 86 | 203 | 4.0 | 8.0 | 0.00 | 0.00 | 0.00 | 77 | 1019.6 |
| 20260830150142 | 85 | 231 | 4.0 | 9.0 | 0.00 | 0.00 | 0.00 | 77 | 1019.5 |
| 20260830145642 | 85 | 243 | 4.0 | 7.0 | 0.00 | 0.00 | 0.00 | 78 | 1019.5 |
| 20260830145142 | 85 | 214 | 4.0 | 8.0 | 0.00 | 0.00 | 0.00 | 79 | 1019.5 |
| 20260830144642 | 85 | 226 | 3.0 | 8.0 | 0.00 | 0.00 | 0.00 | 79 | 1019.6 |
| 20260830144142 | 84 | 241 | 3.0 | 6.0 | 0.00 | 0.00 | 0.00 | 80 | 1019.7 |
| 20260830143642 | 84 | 205 | 3.0 | 6.0 | 0.00 | 0.00 | 0.00 | 81 | 1019.7 |
| 20260830143142 | 83 | 204 | 3.0 | 6.0 | 0.00 | 0.00 | 0.00 | 81 | 1019.8 |
| 20260830142642 | 83 | 244 | 3.0 | 7.0 | 0.00 | 0.00 | 0.00 | 82 | 1019.8 |
| 20260830142142 | 83 | 243 | 3.0 | 7.0 | 0.00 | 0.00 | 0.00 | 82 | 1019.8 |
| 20260830141642 | 83 | 247 | 2.0 | 5.0 | 0.00 | 0.00 | 0.00 | 82 | 1019.8 |
| 20260830141142 | 82 | 264 | 2.0 | 4.0 | 0.00 | 0.00 | 0.00 | 84 | 1019.6 |
| 20260830140642 | 82 | 255 | 2.0 | 6.0 | 0.00 | 0.00 | 0.00 | 84 | 1019.7 |
| 20260830140142 | 81 | 199 | 3.0 | 6.0 | 0.00 | 0.00 | 0.00 | 86 | 1019.6 |
| 20260830135642 | 80 | 244 | 4.0 | 6.0 | 0.00 | 0.00 | 0.00 | 86 | 1019.5 |
| 20260830135142 | 80 | 230 | 4.0 | 7.0 | 0.00 | 0.00 | 0.00 | 87 | 1019.5 |
| 20260830134642 | 80 | 210 | 3.0 | 6.0 | 0.00 | 0.00 | 0.00 | 88 | 1019.6 |
| 20260830134142 | 79 | 246 | 3.0 | 6.0 | 0.00 | 0.00 | 0.00 | 89 | 1019.5 |
| 20260830133642 | 79 | 236 | 3.0 | 7.0 | 0.00 | 0.00 | 0.00 | 89 | 1019.5 |
| 20260830133142 | 78 | 214 | 3.0 | 5.0 | 0.00 | 0.00 | 0.00 | 90 | 1019.5 |
| 20260830132642 | 77 | 168 | 3.0 | 5.0 | 0.00 | 0.00 | 0.00 | 90 | 1019.5 |
| 20260830132142 | 77 | 208 | 2.0 | 4.0 | 0.00 | 0.00 | 0.00 | 91 | 1019.4 |
| 20260830131642 | 76 | 196 | 2.0 | 5.0 | 0.00 | 0.00 | 0.00 | 91 | 1019.4 |
| 20260830131142 | 76 | 199 | 2.0 | 4.0 | 0.00 | 0.00 | 0.00 | 92 | 1019.4 |
| 20260830130642 | 75 | 204 | 2.0 | 5.0 | 0.00 | 0.00 | 0.00 | 92 | 1019.4 |
| 20260830130142 | 75 | 165 | 2.0 | 3.0 | 0.00 | 0.00 | 0.00 | 93 | 1019.5 |
| 20260830125642 | 74 | 201 | 2.0 | 4.0 | 0.00 | 0.00 | 0.00 | 93 | 1019.4 |
| 20260830125142 | 74 | 172 | 2.0 | 4.0 | 0.00 | 0.00 | 0.00 | 93 | 1019.3 |
| 20260830124642 | 73 | 197 | 2.0 | 4.0 | 0.00 | 0.00 | 0.00 | 93 | 1019.3 |
| 20260830124142 | 73 | 184 | 1.0 | 4.0 | 0.00 | 0.00 | 0.00 | 93 | 1019.2 |
| 20260830123642 | 73 | 185 | 1.0 | 2.0 | 0.00 | 0.00 | 0.00 | 94 | 1019.2 |
| 20260830123142 | 72 | 186 | 1.0 | 4.0 | 0.00 | 0.00 | 0.00 | 94 | 1019.2 |
| 20260830122642 | 72 | 187 | 1.0 | 3.0 | 0.00 | 0.00 | 0.00 | 94 | 1019.3 |
| 20260830122142 | 72 | 172 | 1.0 | 2.0 | 0.00 | 0.00 | 0.00 | 94 | 1019.1 |
| 20260830121642 | 72 | 167 | 1.0 | 3.0 | 0.00 | 0.00 | 0.00 | 94 | 1019.0 |
| 20260830121142 | 72 | 160 | 1.0 | 4.0 | 0.00 | 0.00 | 0.00 | 94 | 1019.1 |
| 20260830120642 | 72 | 179 | 1.0 | 3.0 | 0.00 | 0.00 | 0.00 | 94 | 1019.1 |
| 20260830120142 | 72 | 164 | 2.0 | 4.0 | 0.00 | 0.00 | 0.00 | 93 | 1019.0 |
| 20260830115642 | 72 | 178 | 1.0 | 5.0 | 0.00 | 0.00 | 0.00 | 93 | 1018.8 |
| 20260830115142 | 72 | 172 | 0.0 | 3.0 | 0.00 | 0.00 | 0.00 | 93 | 1018.7 |
| 20260830114642 | 72 | 189 | 0.0 | 0.0 | 0.00 | 0.00 | 0.00 | 92 | 1018.5 |
| 20260830114142 | 72 | 189 | 0.0 | 0.0 | 0.00 | 0.00 | 0.00 | 90 | 1018.5 |
| 20260830113642 | 72 | 189 | 0.0 | 0.0 | 0.00 | 0.00 | 0.00 | 92 | 1018.4 |
| 20260830113142 | 72 | 189 | 0.0 | 0.0 | 0.00 | 0.00 | 0.00 | 93 | 1018.4 |
| 20260830112642 | 72 | 167 | 0.0 | 0.0 | 0.00 | 0.00 | 0.00 | 92 | 1018.2 |
| 20260830112142 | 72 | 178 | 1.0 | 3.0 | 0.00 | 0.00 | 0.00 | 92 | 1018.3 |
| 20260830111642 | 72 | 165 | 1.0 | 3.0 | 0.00 | 0.00 | 0.00 | 93 | 1018.2 |
| 20260830111142 | 72 | 195 | 1.0 | 2.0 | 0.00 | 0.00 | 0.00 | 92 | 1018.1 |
| 20260830110642 | 72 | 174 | 1.0 | 3.0 | 0.00 | 0.00 | 0.00 | 92 | 1018.1 |
| 20260830110142 | 72 | 173 | 1.0 | 2.0 | 0.00 | 0.00 | 0.00 | 92 | 1018.2 |
| 20260830105642 | 72 | 178 | 0.0 | 1.0 | 0.00 | 0.00 | 0.00 | 91 | 1018.1 |